| time (UTC) | temp C | wind direction | speed KPH | gust KPH | rain 1hr cm | rain 24hr cm | rain mn cm | humidity % | barometer mb |
| 20260502163216 | 23 | 257 | 0.0 | 6.4 | 0.00 | 0.00 | 0.00 | 34 | 1013.1 |
| 20260502162003 | 23 | 251 | 1.6 | 19.3 | 0.00 | 0.00 | 0.00 | 34 | 1013.2 |
| 20260502161003 | 23 | 0 | 0.0 | 0.0 | 0.00 | 0.00 | 0.00 | 33 | 1013.3 |
| 20260502152218 | 25 | 323 | 3.2 | 19.3 | 0.00 | 0.00 | 0.00 | 31 | 1013.7 |
| 20260502151003 | 26 | 333 | 4.8 | 22.5 | 0.00 | 0.00 | 0.00 | 30 | 1013.8 |
| 20260502123003 | 27 | 206 | 3.2 | 25.7 | 0.00 | 0.00 | 0.00 | 33 | 1015.7 |
| 20260502122003 | 27 | 310 | 3.2 | 29.0 | 0.00 | 0.00 | 0.00 | 34 | 1015.8 |
| 20260502121003 | 26 | 182 | 3.2 | 35.4 | 0.00 | 0.00 | 0.00 | 37 | 1015.8 |
| 20260502115003 | 26 | 181 | 4.8 | 32.2 | 0.00 | 0.00 | 0.00 | 36 | 1016.1 |
| 20260502114216 | 26 | 210 | 6.4 | 20.9 | 0.00 | 0.00 | 0.00 | 37 | 1016.0 |
| 20260502113003 | 26 | 199 | 6.4 | 19.3 | 0.00 | 0.00 | 0.00 | 36 | 1016.2 |
| 20260502112003 | 26 | 168 | 6.4 | 29.0 | 0.00 | 0.00 | 0.00 | 35 | 1016.4 |
| 20260502111003 | 26 | 181 | 6.4 | 29.0 | 0.00 | 0.00 | 0.00 | 35 | 1016.4 |
| 20260502110003 | 25 | 181 | 6.4 | 22.5 | 0.00 | 0.00 | 0.00 | 35 | 1016.5 |
| 20260502105003 | 25 | 170 | 4.8 | 29.0 | 0.00 | 0.00 | 0.00 | 35 | 1016.6 |
| 20260502104003 | 25 | 183 | 3.2 | 20.9 | 0.00 | 0.00 | 0.00 | 35 | 1016.8 |
| 20260502103003 | 25 | 177 | 3.2 | 17.7 | 0.00 | 0.00 | 0.00 | 37 | 1016.9 |
| 20260502102003 | 24 | 186 | 3.2 | 32.2 | 0.00 | 0.00 | 0.00 | 36 | 1017.0 |
| 20260502101003 | 24 | 195 | 1.6 | 27.4 | 0.00 | 0.00 | 0.00 | 39 | 1017.1 |
| 20260502091003 | 22 | 195 | 4.8 | 16.1 | 0.00 | 0.00 | 0.00 | 45 | 1017.7 |
| 20260502071003 | 18 | 171 | 3.2 | 25.7 | 0.00 | 0.00 | 0.00 | 51 | 1018.6 |
| 20260502070003 | 17 | 159 | 1.6 | 20.9 | 0.00 | 0.00 | 0.00 | 52 | 1018.7 |
| 20260502065003 | 17 | 170 | 1.6 | 27.4 | 0.00 | 0.00 | 0.00 | 53 | 1018.8 |
| 20260502064003 | 17 | 173 | 1.6 | 25.7 | 0.00 | 0.00 | 0.00 | 52 | 1018.9 |
| 20260502063003 | 17 | 157 | 1.6 | 22.5 | 0.00 | 0.00 | 0.00 | 53 | 1018.9 |
| 20260502062003 | 16 | 180 | 0.0 | 16.1 | 0.00 | 0.00 | 0.00 | 54 | 1019.0 |
| 20260502061003 | 16 | 170 | 0.0 | 20.9 | 0.00 | 0.00 | 0.00 | 54 | 1019.1 |
| 20260502060003 | 16 | 174 | 1.6 | 19.3 | 0.00 | 0.00 | 0.00 | 55 | 1019.1 |
| 20260502055003 | 15 | 185 | 3.2 | 20.9 | 0.00 | 0.00 | 0.00 | 55 | 1019.3 |
| 20260502054003 | 15 | 184 | 1.6 | 27.4 | 0.00 | 0.00 | 0.00 | 56 | 1019.2 |
| 20260502053003 | 15 | 189 | 1.6 | 19.3 | 0.00 | 0.00 | 0.00 | 57 | 1019.3 |
| 20260502052218 | 15 | 179 | 1.6 | 25.7 | 0.00 | 0.00 | 0.00 | 57 | 1019.4 |
| 20260502051003 | 15 | 184 | 3.2 | 27.4 | 0.00 | 0.00 | 0.00 | 57 | 1019.4 |
| 20260502050003 | 15 | 179 | 3.2 | 27.4 | 0.00 | 0.00 | 0.00 | 57 | 1019.5 |
| 20260502045003 | 14 | 181 | 4.8 | 40.2 | 0.00 | 0.00 | 0.00 | 57 | 1019.5 |
| 20260502044003 | 14 | 199 | 3.2 | 29.0 | 0.00 | 0.00 | 0.00 | 59 | 1019.7 |
| 20260502043218 | 13 | 198 | 3.2 | 30.6 | 0.00 | 0.00 | 0.00 | 59 | 1019.7 |
| 20260502042218 | 13 | 184 | 4.8 | 20.9 | 0.00 | 0.00 | 0.00 | 59 | 1019.7 |
| 20260502041003 | 13 | 196 | 3.2 | 20.9 | 0.00 | 0.00 | 0.00 | 60 | 1019.9 |
| 20260502040003 | 13 | 190 | 6.4 | 25.7 | 0.00 | 0.00 | 0.00 | 59 | 1019.8 |
| 20260502035003 | 13 | 186 | 3.2 | 30.6 | 0.00 | 0.00 | 0.00 | 59 | 1019.8 |
| 20260502034003 | 13 | 188 | 1.6 | 16.1 | 0.00 | 0.00 | 0.00 | 59 | 1020.0 |
| 20260502033217 | 13 | 188 | 3.2 | 32.2 | 0.00 | 0.00 | 0.00 | 59 | 1020.1 |
| 20260502032003 | 13 | 186 | 4.8 | 27.4 | 0.00 | 0.00 | 0.00 | 60 | 1020.2 |
| 20260502031217 | 13 | 177 | 4.8 | 27.4 | 0.00 | 0.00 | 0.00 | 61 | 1020.3 |
| 20260502030003 | 13 | 191 | 4.8 | 20.9 | 0.00 | 0.00 | 0.00 | 61 | 1020.4 |
| 20260502025003 | 13 | 193 | 4.8 | 25.7 | 0.00 | 0.00 | 0.00 | 62 | 1020.5 |
| 20260502024217 | 12 | 197 | 3.2 | 32.2 | 0.00 | 0.00 | 0.00 | 63 | 1020.7 |
| 20260502023003 | 12 | 208 | 1.6 | 17.7 | 0.00 | 0.00 | 0.00 | 64 | 1020.8 |
| 20260502022003 | 12 | 218 | 1.6 | 11.3 | 0.00 | 0.00 | 0.00 | 64 | 1020.9 |
| 20260502021217 | 12 | 202 | 3.2 | 20.9 | 0.00 | 0.00 | 0.00 | 63 | 1021.0 |
| 20260502020003 | 11 | 185 | 1.6 | 17.7 | 0.00 | 0.00 | 0.00 | 62 | 1021.1 |
| 20260502015217 | 12 | 181 | 3.2 | 11.3 | 0.00 | 0.00 | 0.00 | 62 | 1021.2 |
| 20260502014003 | 12 | 178 | 3.2 | 17.7 | 0.00 | 0.00 | 0.00 | 61 | 1021.4 |
| 20260502013003 | 12 | 182 | 1.6 | 12.9 | 0.00 | 0.00 | 0.00 | 61 | 1021.5 |
| 20260502012003 | 12 | 190 | 0.0 | 11.3 | 0.00 | 0.00 | 0.00 | 61 | 1021.7 |
| 20260502011003 | 12 | 179 | 0.0 | 3.2 | 0.00 | 0.00 | 0.00 | 60 | 1021.9 |
| 20260502010003 | 12 | 197 | 0.0 | 9.7 | 0.00 | 0.00 | 0.00 | 60 | 1022.0 |
| 20260502005003 | 12 | 206 | 0.0 | 6.4 | 0.00 | 0.00 | 0.00 | 60 | 1022.1 |
| 20260502004003 | 12 | 211 | 0.0 | 9.7 | 0.00 | 0.00 | 0.00 | 60 | 1022.2 |
| 20260502003003 | 12 | 223 | 0.0 | 11.3 | 0.00 | 0.00 | 0.00 | 61 | 1022.2 |
| 20260502002003 | 12 | 188 | 0.0 | 17.7 | 0.00 | 0.00 | 0.00 | 61 | 1022.2 |
| 20260502001218 | 12 | 197 | 1.6 | 17.7 | 0.00 | 0.00 | 0.00 | 61 | 1022.1 |
| 20260502000003 | 12 | 190 | 3.2 | 12.9 | 0.00 | 0.00 | 0.00 | 62 | 1022.1 |
| 20260501235218 | 12 | 193 | 1.6 | 12.9 | 0.00 | 0.00 | 0.00 | 62 | 1022.2 |
| 20260501234003 | 12 | 175 | 1.6 | 12.9 | 0.00 | 0.00 | 0.00 | 63 | 1022.2 |
| 20260501233218 | 12 | 190 | 0.0 | 9.7 | 0.00 | 0.00 | 0.00 | 65 | 1022.2 |
| 20260501232218 | 12 | 201 | 0.0 | 8.0 | 0.00 | 0.00 | 0.00 | 66 | 1022.3 |
| 20260501231003 | 11 | 181 | 1.6 | 11.3 | 0.00 | 0.00 | 0.00 | 67 | 1022.5 |
| 20260501230003 | 11 | 170 | 1.6 | 11.3 | 0.00 | 0.00 | 0.00 | 68 | 1022.6 |
| 20260501225218 | 11 | 185 | 1.6 | 12.9 | 0.00 | 0.00 | 0.00 | 70 | 1022.7 |
| 20260501224003 | 11 | 175 | 1.6 | 17.7 | 0.00 | 0.00 | 0.00 | 72 | 1022.8 |
| 20260501223003 | 10 | 170 | 1.6 | 12.9 | 0.00 | 0.00 | 0.00 | 75 | 1022.9 |
| 20260501222003 | 9 | 0 | 0.0 | 0.0 | 0.00 | 0.00 | 0.00 | 76 | 1023.0 |
| 20260501221003 | 8 | 0 | 0.0 | 0.0 | 0.00 | 0.00 | 0.00 | 76 | 1023.0 |
| 20260501220003 | 8 | 0 | 0.0 | 0.0 | 0.00 | 0.00 | 0.00 | 76 | 1023.1 |
| 20260501215003 | 8 | 0 | 0.0 | 0.0 | 0.00 | 0.00 | 0.00 | 76 | 1023.2 |
| 20260501214003 | 8 | 0 | 0.0 | 0.0 | 0.00 | 0.00 | 0.00 | 76 | 1023.3 |
| 20260501213003 | 8 | 0 | 0.0 | 0.0 | 0.00 | 0.00 | 0.00 | 75 | 1023.5 |
| 20260501212003 | 8 | 0 | 0.0 | 0.0 | 0.00 | 0.00 | 0.00 | 75 | 1023.6 |
| 20260501211003 | 8 | 0 | 0.0 | 0.0 | 0.00 | 0.00 | 0.00 | 74 | 1023.7 |
| 20260501210003 | 9 | 0 | 0.0 | 0.0 | 0.00 | 0.00 | 0.00 | 73 | 1023.8 |
| 20260501205003 | 10 | 0 | 0.0 | 0.0 | 0.00 | 0.00 | 0.00 | 73 | 1023.8 |
| 20260501204003 | 10 | 0 | 0.0 | 0.0 | 0.00 | 0.00 | 0.00 | 72 | 1023.8 |
| 20260501203003 | 10 | 0 | 0.0 | 0.0 | 0.00 | 0.00 | 0.00 | 71 | 1023.8 |
| 20260501202003 | 10 | 0 | 0.0 | 0.0 | 0.00 | 0.00 | 0.00 | 70 | 1024.0 |
| 20260501201003 | 11 | 0 | 0.0 | 0.0 | 0.00 | 0.00 | 0.00 | 69 | 1024.1 |
| 20260501200003 | 11 | 0 | 0.0 | 0.0 | 0.00 | 0.00 | 0.00 | 68 | 1024.0 |
| 20260501195216 | 11 | 0 | 0.0 | 0.0 | 0.00 | 0.00 | 0.00 | 68 | 1024.1 |
| 20260501194003 | 11 | 0 | 0.0 | 0.0 | 0.00 | 0.00 | 0.00 | 67 | 1024.2 |
| 20260501193003 | 12 | 0 | 0.0 | 0.0 | 0.00 | 0.00 | 0.00 | 66 | 1024.3 |
| 20260501192216 | 12 | 0 | 0.0 | 0.0 | 0.00 | 0.00 | 0.00 | 66 | 1024.3 |
| 20260501191003 | 13 | 0 | 0.0 | 0.0 | 0.00 | 0.00 | 0.00 | 64 | 1024.4 |
| 20260501190218 | 13 | 0 | 0.0 | 0.0 | 0.00 | 0.00 | 0.00 | 64 | 1024.4 |
| 20260501185003 | 14 | 0 | 0.0 | 0.0 | 0.00 | 0.00 | 0.00 | 62 | 1024.5 |
| 20260501184003 | 15 | 0 | 0.0 | 0.0 | 0.00 | 0.00 | 0.00 | 60 | 1024.4 |
| 20260501183003 | 15 | 0 | 0.0 | 0.0 | 0.00 | 0.00 | 0.00 | 58 | 1024.4 |
| 20260501182003 | 16 | 0 | 0.0 | 0.0 | 0.00 | 0.00 | 0.00 | 57 | 1024.4 |
| 20260501181003 | 16 | 0 | 0.0 | 0.0 | 0.00 | 0.00 | 0.00 | 55 | 1024.5 |
| 20260501180003 | 17 | 0 | 0.0 | 0.0 | 0.00 | 0.00 | 0.00 | 54 | 1024.6 |
| 20260501175218 | 17 | 0 | 0.0 | 0.0 | 0.00 | 0.00 | 0.00 | 52 | 1024.7 |
| 20260501174003 | 18 | 0 | 0.0 | 0.0 | 0.00 | 0.00 | 0.00 | 50 | 1024.8 |
| 20260501173003 | 18 | 0 | 0.0 | 0.0 | 0.00 | 0.00 | 0.00 | 49 | 1024.8 |
| 20260501172218 | 18 | 0 | 0.0 | 0.0 | 0.00 | 0.00 | 0.00 | 49 | 1024.8 |
| 20260501171003 | 18 | 0 | 0.0 | 0.0 | 0.00 | 0.00 | 0.00 | 49 | 1025.0 |
| 20260501170003 | 18 | 0 | 0.0 | 0.0 | 0.00 | 0.00 | 0.00 | 49 | 1025.1 |
| 20260501165003 | 18 | 0 | 0.0 | 0.0 | 0.00 | 0.00 | 0.00 | 48 | 1025.2 |
| 20260501164003 | 18 | 0 | 0.0 | 0.0 | 0.00 | 0.00 | 0.00 | 47 | 1025.3 |